Michele Cacaci

A.S.D. DINAMO SPORT
14-08-1993


Informazioni sul tesseramento aggiornate al 2019


Condividi con
Seguici su:


800 metri

Anno Data Tipo Cr. Cat. Piazz. Prestaz. Vento Città  
201209/09PEJM1 se- 3 2:01.64Modena
200918/06PEAM7 se- 2 2:08.79Sasso Marconi
200909/09PEAM11 se- 2 2:11.48Serravalle
 

1000 metri

Anno Data Tipo Cr. Cat. Piazz. Prestaz. Vento Città  
201220/04PMJM1 su- 1 2:42.0Cesena
200914/05PEAM4 su- 1 2:49.35Comacchio
200831/05PECM6 su- 1 2:55.93Massa Lombarda
200819/04PMCM2 su- 1 2:58.6Forli
200810/05PMCM3 su- 1 3:04.3Massalombarda
 

1500 metri

Anno Data Tipo Cr. Cat. Piazz. Prestaz. Vento Città  
201212/09PEJM2 se- 2 3:59.49Faenza
201207/09PEJM1 su- 1 4:01.25Misano Adriatico
201114/09PEJM5 se- 2 4:03.73Faenza
201109/07PEJM5 se- 1 4:03.88Modena
201015/07PEAM4 se- 1 4:04.67Bologna
201202/06PEJM2 su- 1 4:05.46Serravalle
201130/06PEJM8 se- 1 4:05.79Ferrara
201112/02IEJM8 su- 1 4:08.07Ancona
201025/04PEAM1 se- 2 4:08.15Modena
201108/10PMJM7 su- 1 4:08.2Fano
201006/07PEAM1 su- 1 4:08.77Pavullo Nel Frignano
201004/07PEAM5 su- 1 4:09.23Castelnovo Monti
201017/05PEAM11 se- 1 4:09.41Imola
201015/09PEAM11 se- 2 4:09.43Faenza
201124/09PEJM4 se- 2 4:10.29Colle Valdelsa
200925/04PEAM13 se- 2 4:13.41Modena
200927/06PEAM9 se- 2 4:15.43Parma
201005/09PEAM5 se- 1 4:17.12Copparo
 

2000 metri

Anno Data Tipo Cr. Cat. Piazz. Prestaz. Vento Città  
200811/10PECM9 se- 2 5:57.20Roma
200828/09PECM3 su- 1 5:58.84Forli
200817/09PECM2 su- 1 6:14.00Faenza
200801/06PECM4 su- 1 6:22.30Massa Lombarda
200811/05PMCM2 su- 1 6:27.2Massalombarda
 

3000 metri

Anno Data Tipo Cr. Cat. Piazz. Prestaz. Vento Città  
201630/06PESM1 se- 3 8:26.15Ferrara
201503/06PEPM2 se- 4 8:26.58Imola
201216/09PEJM1 su- 1 8:34.21Imola
201814/06PESM2 se- 1 8:35.88Sasso Marconi
201828/06PESM2 se- 2 8:38.87Ferrara
201024/06PEAM11 se- 1 8:38.95Ferrara
201225/07PEJM1 se- 2 8:43.31Massalombarda
201017/06PEAM3 se- 1 8:44.60Sasso Marconi
201110/09PEJM2 se- 1 8:46.09Modena
201103/09PEJM1 su- 1 8:49.74Reggio Emilia
201118/09PEJM1 su- 1 8:51.16Modena
201001/05PEAM4 su- 1 8:52.47Voltabarozzo
201017/04PEAM1 se- 1 8:56.04Copparo
200923/06PEAM9 se- 2 8:58.63Ferrara
200911/06PEAM7 se- 2 9:05.16Imola
200903/05PEAM1 su- 1 9:10.58Reggio Emilia
200920/09PEAM4 su- 1 9:13.36Modena
200924/05PEAM2 su- 1 9:17.17Bologna
 

5000 metri

Anno Data Tipo Cr. Cat. Piazz. Prestaz. Vento Città  
201625/06PESM9 su- 1 14:24.30Rieti
201618/06PESM2 su- 1 14:30.71Modena
201523/05PEPM4 se- 2 14:37.30Fidenza
201305/06PEPM2 se- 1 14:43.35Imola
201411/05PEPM99 se- 1 14:44.37Modena
201326/05PEPM1 se- 1 14:47.28Cassino
201622/05PESM1 se- 1 14:48.56Modena
201605/06PESM2 su- 1 14:50.47Piacenza
201424/05PEPM7 se- 2 14:56.82Milano
201513/06PEPM8 su- 1 15:00.80Rieti
201806/05PESM1 se- 3 15:00.85Modena
201115/05PEJM6 se- 1 15:01.63Imola
201122/06PEJM4 su- 1 15:03.55Serravalle
201215/06PEJM4 su- 1 15:06.21Misano Adriatico
201008/06PEAM6 se- 1 15:10.14Imola
201125/09PEJM8 su- 1 15:11.22Colle Valdelsa
201206/06PEJM9 se- 1 15:11.82Imola
201013/06PEAM5 su- 1 15:14.21Modena
201410/09PEPM1 su- 1 15:14.22Faenza
201121/05PEJM8 su- 1 15:15.96Gavardo
201117/06PEJM5 su- 1 15:19.48Bressanone
201230/05PEJM1 su- 1 15:21.39Parma
201016/05PEAM9 se- 1 15:27.89Imola
201002/06PEAM2 su- 1 15:30.34Parma
201010/04PEAM2 su- 1 15:35.12Bologna
201109/10PEJM4 su- 1 15:39.67Fano
200928/06PEAM4 su- 1 15:54.99Parma
 

10000 metri

Anno Data Tipo Cr. Cat. Piazz. Prestaz. Vento Città  
201614/05PESM9 su- 1 29:49.65Castelporziano
201624/04PESM5 se- 3 30:00.42Rubiera
201526/04PEPM4 se- 2 30:16.85Rubiera
201722/04PESM16 se- 4 30:39.21Marina Di Carrara
201318/05PEPM4 se- 1 30:46.63Ancona
201328/04PEPM8 se- 3 30:52.38Rubiera
201821/04PESM12 se- 4 30:55.31Marina Di Carrara
201222/04PEJM4 se- 2 32:00.05Rubiera
201417/05PEPM13 se- 1 32:11.14Ferrara
 

Corsa strada Km 10

Anno Data Tipo Cr. Cat. Piazz. Prestaz. Vento Città  
201613/03SESM1 su- 1 30:48Cesenatico
201825/02SESM5 su- 1 30:55Misano Adriatico
201427/04SEPM3 su- 1 31:09Lovoleto
201705/03SESM2 su- 1 31:14Cesenatico
201924/11SESM3 su- 1 31:14Minerbio
201327/10SEPM1 su- 1 31:24Fidenza
201407/09SEPM2 su- 1 31:35Parma
201109/01SMJM1 su- 1 31:36San Angelo Di Gatteo
201811/02SESM1 su- 1 31:50Granarolo Dell'emilia
201628/08SMSM3 su- 1 32:07Santangelo Di Gatteo
201313/04SEPM3 su- 1 32:09Castenaso
201917/11SESM2 su- 1 32:09Santarcangelo Di Romagna
201301/09SEPM4 su- 1 32:21Parma
201820/05SMSM1 se- 1 32:32Forli
201226/02SEJM5 su- 1 32:32Castenaso
201229/04SEJM1 su- 1 32:38Santangelo Di Gatteo
201321/09SMPM9 su- 1 32:44Molfetta
201908/09SMSM40 su- 1 32:44Canelli
201818/11SESM8 su- 1 33:29Santarcangelo Di Romagna
201512/09SMPM65 su- 1 33:41Trecastagni
201801/09SMSM65 su- 1 33:45Alberobello
201825/11SESM14 su- 1 34:15Minerbio
 

MARATONINA A

Anno Data Tipo Cr. Cat. Piazz. Prestaz. Vento Città  
201416/02SMPM15 su- 1 1h05:39Verona
201606/03SMSM13 su- 1 1h06:30Fucecchio
201320/10SMPM29 su- 1 1h07:01Cremona
201529/03SMPM15 su- 1 1h07:11Milano
201501/03SEPM2 su- 1 1h07:56Ravenna
201202/12SMJM1 su- 1 1h08:08Voltana
201421/09SMPM1 su- 1 1h08:09Udine
201508/02SMPM1 su- 1 1h08:45Fusignano
201504/10SMPM4 su- 1 1h09:12Telese Terme
201503/05SMPM12 su- 1 1h09:19Piacenza
201324/03SMPM2 su- 1 1h10:30Ferrara
201123/10SMJM4 su- 1 1h10:42Cotignola
201106/03SEJM7 su- 1 1h11:09Ravenna
201920/10SESM31 su- 1 1h11:37Palermo
 

2000 siepi H91

Anno Data Tipo Cr. Cat. Piazz. Prestaz. Vento Città  
201008/05PEAM1 su- 1 6:13.09Reggio Emilia
201018/09PEAM1 su- 1 6:13.80Imola
201023/05PEAM1 su- 1 6:14.54Bressanone
201003/10PEAM7 se- 2 6:16.43Rieti
200906/06PEAM2 su- 1 6:20.88Imola
200919/09PEAM3 su- 1 6:21.93Modena
200923/05PEAM2 su- 1 6:27.05Bologna
200902/05PEAM1 su- 1 6:27.76Reggio Emilia
200904/10PEAM11 se- 2 6:28.46Grosseto
 

3000 siepi H91

Anno Data Tipo Cr. Cat. Piazz. Prestaz. Vento Città  
200916/05PEAM8 su- 1 10:00.19Modena
200904/07PEAM4 su- 1 10:01.53Imola
 

Attenzione: le schede-atleti sono composte automaticamente sulla base dei dati inseriti all'interno degli archivi nazionali aggiornati dal 2005 al 10-12-2019. Se un risultato non compare nelle graduatorie, quindi, è segno che lo stesso, con ogni probabilità, non è stato ancora inserito. Il processo di inserimento è di competenza dei Comitati Regionali sul cui territorio ha avuto luogo la manifestazione: eventuali segnalazioni per errori od omissioni, vanno dunque indirizzate agli stessi (potete utilizzare l'elenco con relativi contatti). Considerato però che solo le principali manifestazioni nazionali sono oggetto di inserimenti "in diretta" (sul posto di gara), mentre le altre, incluse le internazionali in programma all'estero, vengono inserite in tempi successivi, è opportuno attendere un ragionevole lasso di tempo prima di procedere ad una segnalazione.

Stickers


Non ventosi

GaraTipoPrestazioneVentoAnnoCittà
800 metriPista 2:01.642012Modena
1000 metriPista 2:42.02012Cesena
1500 metriPista 3:59.492012Faenza
1500 metriIndoor 4:08.072011Ancona
2000 metriPista 5:57.202008Roma
3000 metriPista 8:26.152016Ferrara
5000 metriPista 14:24.302016Rieti
10000 metriPista 29:49.652016Castelporziano
Corsa strada Km 10Strada 30:482016Cesenatico
MARATONINA AStrada 1h05:392014Verona
2000 siepi H91Pista 6:13.092010Reggio Emilia
3000 siepi H91Pista 10:00.192009Modena

AnnoTipo mov.CategoriaSocietà
2019RinnovoSeniores MaschileA.S.D. DINAMO SPORT
2018TrasferimentoSeniores MaschileA.S.D. DINAMO SPORT
2017RinnovoSeniores MaschileATL. CASONE NOCETO
2016RinnovoSeniores MaschileATL. CASONE NOCETO
2015RinnovoPromesse MaschileATL. CASONE NOCETO
2014RinnovoPromesse MaschileATL. CASONE NOCETO
2013TrasferimentoPromesse MaschileATL. CASONE NOCETO
2012RinnovoJuniores MaschileEDERA ATL. FORLI
2011RinnovoJuniores MaschileEDERA ATL. FORLI
2010RinnovoAllieviEDERA ATL. FORLI
2009RinnovoAllieviEDERA ATL. FORLI
2008NuovoCadettiEDERA ATL. FORLI
AnnoInizioFineTipoDenominazione
201421-0921-09NazionaleInc. Internazionale Corsa su Strada - Udine